Tracking 19636 objects as of 24-May-2019
HD Live streaming from Space Station
objects crossing your sky now

STTW-T1

Track STTW-T1 now!
10-day predictions
STTW-T1 is classified as:


NORAD ID: 14670
Int'l Code: 1984-008A
Perigee: 483.3 km
Apogee: 6,320.7 km
Inclination: 36.1 °
Period: 160.3 minutes
Semi major axis: 9772 km
RCS: 3.9341 m2 (large)
Launch date: January 29, 1984
Source: People's Republic of China (PRC)
Launch site: Xichang Space Center, China (XSC)
aabbcc
Your satellite tracking list
Your tracking list is empty




NASA's NSSDC Master Catalog

Two Line Element Set (TLE):
1 14670U 84008A   19143.80646408 +.00000001 +00000-0 +18795-4 0  9997
2 14670 036.1100 254.6945 2986512 041.3329 337.8581 08.98589874151492
Source of the keplerian elements: AFSPC